Location: Pensacola
(30.4142°N, 87.2155°W)
Time: 11:17:39
(UTC-05:00)

DELFI C3 - Visible Passes

Search period start: 31 May 2023 00:00
Search period end: 10 June 2023 00:00
Orbit: 455 x 467 km, 97.3° (Epoch: 31 May)

Date Brightness Start Highest point End Pass type
(mag) Time Alt. Az. Time Alt. Az. Time Alt. Az.
01 Jun ? 20:20:01 10° SW 20:21:54 14° W 20:23:48 10° WNW visible
04 Jun ? 20:17:25 10° SW 20:19:29 15° W 20:21:33 10° WNW visible
07 Jun ? 20:13:57 10° SW 20:16:14 17° W 20:18:31 10° NW visible
